Location: Gleizolles
(44.4833°N, 6.7667°E)
Time: 21:06:45
(UTC+00:00)

A-11 Canister half - Pass Details

Date: 25 June 2024
Orbit: 1524 x 1684 km, 47.3° (Epoch: 18 July)

Event Time Altitude Azimuth Distance (km) Brightness Sun altitude
Rises 10:28:04 0° 212° (SSW) 4,784 11.7 64.8°
Reaches altitude 10° 10:31:24 10° 205° (SSW) 3,779 11.4 65.1°
Maximum altitude 10:40:08 42° 139° (SE) 2,081 11.2 66.0°
Drops below altitude 10° 10:48:41 10° 72° (ENE) 3,703 11.2 66.8°
Sets 10:51:54 0° 66° (ENE) 4,680 11.6 67.1°
